Location: Peach Mountain Observatory
(42.3967°N, 83.9367°W)
Time: 03:39:57
(UTC-04:00)

deb Explorer IX - Pass Details

Date: 20 January 2020
Orbit: 547 x 1100 km, 38.8° (Epoch: 04 April)

Event Time Altitude Azimuth Distance (km) Brightness Sun altitude
Rises 01:08:27 0° 245° (WSW) 3,903 - -67.4°
Reaches altitude 10° 01:11:18 10° 241° (WSW) 2,948 - -67.2°
Maximum altitude 01:18:23 56° 166° (SSE) 1,253 - -66.8°
Drops below altitude 10° 01:25:01 10° 90° (E) 2,761 - -66.4°
Sets 01:27:36 0° 87° (E) 3,639 - -66.2°
